Weather History for KRIV - February, 2013

Change the Weather History Date:

Wednesday, February 6, 2013

  Actual Average (KRAL) Record (KRAL)
Temperature  
Mean Temperature 50 °F 55 °F  
Max Temperature 60 °F 66 °F 89 °F (1963)
Min Temperature 37 °F 44 °F 22 °F (2003)
Degree Days  
Heating Degree Days 16 10  
Month to date heating degree days 60  
Since 1 July heating degree days 905  
Cooling Degree Days 0 0  
Month to date cooling degree days 0  
Year to date cooling degree days 6  
Moisture  
Dew Point 47 °F    
Average Humidity 93    
Maximum Humidity 100    
Minimum Humidity 67    
Precipitation  
Precipitation 0.00 in 0.08 in 1.25 in (1950)
Month to date precipitation 0.37  
Year to date precipitation 3.31  
Snow  
Snow 0.00 in - - ()
Month to date snowfall  
Year to date snowfall  
Since 1 July snowfall  
Snow Depth -    
Sea Level Pressure  
Sea Level Pressure 30.03 in    
Wind  
Wind Speed 4 mph (SW)    
Max Wind Speed 8 mph    
Max Gust Speed -    
Visibility 6 miles    
Events      
T = Trace of Precipitation, MM = Missing Value Source: NWS Daily Summary

Daily Weather History Graph

Daily Weather History Graph

Search for Another Location

Airport or City:

Trip Planner

Search our weather history database for the weather conditions in past years. The results will help you decide how hot, cold, wet, or windy it might be!

Date:

Astronomy

Feb. 06, 2013 Rise Set
Actual Time 6:41 AM PST 5:24 PM PST
Civil Twilight 6:15 AM PST 5:50 PM PST
Nautical Twilight 5:46 AM PST 6:20 PM PST
Astronomical Twilight 5:16 AM PST 6:49 PM PST
Moon 3:24 AM PST (2/6) 1:53 PM PST (2/6)
Length of Visible Light 11h 35m
Length of Day
10h 43m
Waning Crescent, 16% of the Moon is Illuminated
Feb 6
Waning Crescent
Feb 9
New
Feb 17
First Quarter
Feb 25
Full
Mar 4
Last Quarter

Hourly Weather History & Observations

Time (PST) Temp. Windchill Dew Point Humidity Pressure Visibility Wind Dir Wind Speed Gust Speed Precip Events Conditions
12:28 AM 50.0 °F - 50.0 °F 100% 30.01 in 4.0 mi WNW 2.3 mph - N/A   Overcast
12:58 AM 49.8 °F - 49.8 °F 100% 30.01 in 4.0 mi NW 4.6 mph - N/A   Overcast
1:08 AM 50.0 °F - 50.0 °F 100% 30.01 in 4.0 mi NW 5.8 mph - N/A   Overcast
1:58 AM 49.6 °F - 49.6 °F 100% 30.01 in 3.0 mi NW 6.9 mph - N/A   Overcast
2:58 AM 49.3 °F - 49.3 °F 100% 29.99 in 3.0 mi NNW 2.3 mph - N/A   Overcast
3:33 AM 48.2 °F - 48.2 °F 100% 29.99 in 2.5 mi SSE 6.9 mph - N/A   Overcast
3:45 AM 48.2 °F - 48.2 °F 100% 29.99 in 2.0 mi SSE 8.1 mph - N/A   Light Drizzle
3:58 AM 48.2 °F - 48.2 °F 100% 30.00 in 2.5 mi South 6.9 mph - 0.00 in   Light Drizzle
4:17 AM 48.2 °F - 48.2 °F 100% 29.99 in 3.0 mi SSE 6.9 mph - N/A   Overcast
4:36 AM 48.2 °F - 48.2 °F 100% 29.99 in 3.0 mi SSE 4.6 mph - N/A   Overcast
4:58 AM 47.5 °F - 47.5 °F 100% 29.99 in 3.0 mi SSE 6.9 mph - 0.00 in   Overcast
5:58 AM 47.5 °F - 47.5 °F 100% 30.00 in 3.0 mi SSE 5.8 mph - N/A   Overcast
6:20 AM 48.2 °F - 48.2 °F 100% 30.00 in 4.0 mi SSE 4.6 mph - N/A   Overcast
6:58 AM 47.5 °F - 47.5 °F 100% 30.03 in 5.0 mi SSE 4.6 mph - N/A   Overcast
7:58 AM 48.0 °F - 48.0 °F 100% 30.04 in 5.0 mi SE 3.5 mph - N/A   Overcast
8:33 AM 50.0 °F - 50.0 °F 100% 30.04 in 6.0 mi South 5.8 mph - N/A   Mostly Cloudy
8:58 AM 50.0 °F - 50.0 °F 100% 30.05 in 6.0 mi SSE 3.5 mph - N/A   Mostly Cloudy
9:58 AM 51.6 °F - 48.9 °F 90% 30.06 in 6.0 mi East 3.5 mph - N/A   Mostly Cloudy
10:58 AM 53.6 °F - 48.9 °F 84% 30.06 in 6.0 mi Calm Calm - N/A   Mostly Cloudy
11:13 AM 53.6 °F - 48.2 °F 82% 30.06 in 6.0 mi NNE 1.2 mph - N/A   Scattered Clouds
11:58 AM 56.1 °F - 49.3 °F 78% 30.04 in 10.0 mi Calm Calm - N/A   Clear
12:58 PM 58.8 °F - 50.0 °F 73% 30.01 in 9.0 mi Variable 2.3 mph - N/A   Clear
1:58 PM 60.6 °F - 50.4 °F 69% 30.00 in 10.0 mi Variable 1.2 mph - N/A   Clear
2:58 PM 60.8 °F - 49.6 °F 67% 30.00 in 10.0 mi Variable 5.8 mph - N/A   Clear
3:58 PM 60.3 °F - 49.5 °F 68% 30.01 in 9.0 mi WNW 3.5 mph - N/A   Clear
4:58 PM 56.7 °F - 48.4 °F 74% 30.03 in 10.0 mi WNW 8.1 mph - N/A   Clear
5:58 PM 48.7 °F - 44.4 °F 85% 30.04 in 10.0 mi WNW 8.1 mph - N/A   Clear
6:58 PM 47.8 °F - 44.6 °F 89% 30.06 in 10.0 mi NW 5.8 mph - N/A   Clear
7:58 PM 47.7 °F - 46.0 °F 94% 30.06 in 10.0 mi West 4.6 mph - N/A   Clear
8:58 PM 43.2 °F 41.5 °F 43.0 °F 99% 30.09 in 7.0 mi West 3.5 mph - N/A   Clear
9:58 PM 40.8 °F 38.8 °F 40.8 °F 100% 30.11 in 4.0 mi WNW 3.5 mph - N/A   Clear
10:58 PM 40.5 °F - 40.5 °F 100% 30.12 in 3.0 mi Calm Calm - N/A   Clear
11:33 PM 39.2 °F - 39.2 °F 100% 30.11 in 2.8 mi Calm Calm - N/A   Clear
11:58 PM 37.6 °F 34.0 °F 37.6 °F 100% 30.11 in 2.5 mi West 4.6 mph - N/A   Clear